SCP
0 0 0 0 0 0 0 0 0 0 0 0 0 0 0 0 0 0 0 0 0 0 0 0 0 0 0 0 0 0 0 0
0 0 0 0 0 0 0 0 0 0 0 0 0 0 0 0 0 0 0 0 0 0 0 0 0 0 0 0 0 0 0 0
0 0 0 0 0 0 0 0 0 0 0 0 0 0 0 0 0 0 0 0 0 0 0 0 0 0 0 0 0 0 0 0
0 0 0 0 0 0 0 0 0 0 0 0 0 0 0 0 0 0 0 0 0 0 0 0 0 0 0 0 0 0 0 0
0 0 0 0 0 0 0 0 0 0 0 0 0 0 0 0 0 0 0 0 0 0 0 0 0 0 0 0 0 0 0 0
0 0 0 0 0 0 0 0 0 0 0 0 0 0 0 0 0 0 0 0 0 0 0 0 0 0 0 0 0 0 0 0
0 0 0 0 0 0 0 0 0 0 0 0 0 0 0 0 0 0 0 0 0 0 0 0 0 0 0 0 0 0 0 0
0 0 0 0 0 0 0 0 0 0 0 0 0 0 0 0 0 0 0 0 0 -0 0 0 0 0 0 0 0 0 0 0
0 0 0 0 0 0 0 0 0 0 0 0 0 0 0 0 0 0 0 0 0 0 0 0 0 0 0 0 0 0 0 0
0 0 0 0 0 0 0 0 0 0 0 0 0 0 0 0 0 0 0 0 0 0 0 0 0 0 0 0 0 0 0 0
0 0 0 0 0 0 0 0 0 0 0 0 0 0 0 0 0 0 0 0 0 0 0 0 0 0 0 0 0 0 0 0
0 0 0 0 0 0 0 0 0 0 0 0 0 0 0 0 -0 -0 0 0 0 0 0 0 0 0 0 0 0 0 0 0
0 0 0 0 0 0 0 0 -0 0 0 0 0 0 0 0 0 0 0 0 0 0 0 0 0 0 0 0 0 0 0 0
0 0 0 0 0 0 0 0 0 -0 0 0 0 0 0 0 0 0 0 0 0 0 0 0 0 0 0 0 0 0 0 0
0 0 0 0 0 0 0 0 0 -0 -0 -0 0 0 -0 0 -0 0 -0 0 0 0 0 0 0 0 0 0 0 0 0 0
0 0 0 0 0 0 0 0 0 0 0 -0 -0 -0 -0 -0 0 -0 0 0 0 0 0 0 0 0 0 0 0 0 0 0
0 0 0 0 0 0 0 0 0 0 0 0 0 0 0 -0 -0 0 0 0 0 0 0 0 0 0 0 0 0 0 0 0
0 0 0 0 0 0 0 0 0 0 -0 -0 -0 -0 -0 -0 0 0 0 0 0 0 0 0 0 0 0 0 0 0 0 0
0 0 0 0 0 0 0 0 0 -0 -0 0 0 0 0 0 0 0 0 0 0 0 0 0 0 0 0 0 0 0 0 0
0 0 0 0 0 0 0 0 0 -0 -0 0 0 0 0 0 0 0 0 0 0 0 0 0 0 0 0 0 0 0 0 0
Wind_Speed_500mb
52 45 41 34 31 25 18 15 15 13 11 14 12 10 6 7 8 8 10 15 18 23 18 18 18 21 22 16 12 19 25 26
50 48 39 36 33 26 19 18 16 14 15 13 10 7 4 5 7 8 9 8 14 17 17 15 13 24 25 27 13 22 24 34
48 47 41 38 32 28 21 19 18 17 15 15 11 9 5 3 5 7 8 9 9 13 11 12 13 21 28 27 16 16 20 25
45 41 42 39 35 28 24 21 19 18 16 13 10 8 4 3 5 7 7 7 11 9 8 9 8 19 25 25 18 16 18 26
46 42 43 39 34 29 26 22 20 20 16 15 7 7 7 5 3 8 7 5 6 8 7 7 11 22 30 26 11 20 24 29
44 41 41 37 33 28 24 22 21 21 18 15 11 8 7 5 2 6 4 4 6 9 5 6 7 17 24 30 26 21 24 34
41 40 40 36 33 28 24 22 22 21 20 15 10 8 7 5 3 2 3 4 8 5 10 10 15 15 16 20 31 28 22 34
42 40 39 37 32 29 26 23 25 23 19 15 11 11 9 6 4 3 7 8 9 8 20 17 26 27 24 24 23 34 21 36
40 39 38 33 30 26 25 25 26 25 16 15 14 11 10 6 1 5 10 12 16 20 25 28 35 36 31 34 23 33 25 36
37 38 35 32 25 23 25 28 30 26 18 17 14 11 7 10 3 12 14 23 29 34 41 39 39 38 31 29 28 31 33 41
34 33 30 26 24 22 27 30 30 25 20 17 13 9 8 9 13 19 22 25 33 36 33 30 33 32 38 24 31 40 45 50
32 28 26 28 22 26 29 27 33 20 19 16 12 11 10 12 15 11 21 18 23 22 28 30 28 27 26 34 47 50 46 39
30 28 29 22 26 31 28 34 27 20 18 14 12 14 15 12 15 12 19 21 24 29 30 25 23 23 27 37 44 46 47 45
29 27 26 14 31 27 30 29 21 22 16 13 13 13 11 20 19 20 26 31 28 33 33 28 21 21 29 38 41 44 40 29
28 28 21 23 31 32 26 25 24 17 17 11 6 8 8 14 16 24 27 28 33 36 24 24 28 24 35 38 29 42 35 39
28 29 26 32 32 26 26 24 21 15 11 11 10 11 12 11 19 22 25 32 27 25 32 15 17 36 37 22 24 24 32 34
31 30 29 29 28 26 25 23 19 15 12 8 12 14 19 18 19 27 28 25 30 28 22 24 38 32 37 14 28 26 31 38
36 33 30 30 27 25 24 21 18 14 11 10 19 18 10 16 25 16 24 28 27 33 22 29 45 27 28 27 23 35 36 34
32 31 30 28 25 23 22 20 18 14 13 15 4 6 14 20 12 19 24 22 26 26 28 27 28 30 23 23 31 40 31 29
32 30 28 26 23 21 19 18 18 12 12 14 14 13 19 5 16 14 19 23 24 23 21 25 29 26 25 26 30 25 31 31
Wind_Direction_500mb
162 167 170 179 180 174 172 164 162 161 130 115 108 109 86 54 51 20 25 20 7 14 29 17 7 351 7 5 9 26 3 8
160 165 172 179 178 177 174 174 166 168 143 137 147 137 96 51 26 8 18 354 7 6 20 12 358 342 11 12 51 15 357 359
159 163 172 176 176 178 178 178 170 169 164 155 177 152 107 31 3 17 347 356 352 353 23 18 14 347 8 17 26 25 5 5
162 166 171 173 178 178 180 178 174 172 183 173 186 149 178 283 331 347 339 350 336 335 359 7 329 344 6 11 9 3 2 353
161 170 171 175 180 184 181 179 178 178 192 179 179 196 221 271 288 311 314 333 326 324 344 353 335 336 357 7 354 7 349 341
160 167 170 174 179 182 180 177 180 181 184 178 204 219 232 239 276 289 306 311 311 315 330 323 319 314 352 20 18 3 6 336
159 170 172 172 178 179 179 178 177 184 187 190 204 199 178 172 172 16 7 6 344 312 294 278 278 314 351 0 10 14 343 330
157 166 166 172 176 180 179 180 183 187 177 192 189 168 167 159 108 47 11 339 285 308 285 279 284 282 285 302 338 357 335 338
157 160 168 177 180 184 178 186 189 184 182 180 182 172 175 195 203 325 318 319 300 308 299 297 286 300 294 276 313 335 337 337
155 159 177 185 179 180 184 190 186 179 179 179 187 195 221 214 316 300 295 286 295 304 301 303 313 308 307 267 315 323 335 339
158 167 193 203 185 179 182 183 179 170 185 188 198 217 247 267 278 289 305 312 304 308 327 343 341 337 350 357 333 328 329 330
161 180 200 204 188 177 172 181 170 169 189 196 213 233 247 261 276 293 315 317 315 317 306 301 300 309 326 327 324 321 323 315
168 174 178 201 175 162 177 167 162 180 192 207 228 236 251 273 276 280 276 284 293 314 315 310 293 312 316 326 329 336 332 334
168 180 200 215 161 171 171 161 170 182 195 214 232 265 283 278 294 305 309 309 303 312 314 302 291 300 327 331 334 340 345 344
166 182 198 169 169 166 158 169 179 192 217 252 225 269 246 283 307 312 313 312 321 325 332 310 287 310 328 333 339 341 1 356
164 174 162 162 164 160 175 176 183 194 216 254 252 274 294 302 310 310 308 315 339 353 354 90 35 349 346 357 345 15 6 12
160 166 164 169 168 174 174 180 186 197 211 228 245 273 286 286 300 296 314 348 357 14 51 34 7 7 6 5 9 27 18 16
162 167 166 168 171 174 177 183 189 200 231 257 259 251 269 300 311 338 354 353 10 11 2 10 6 7 17 26 36 23 20 16
160 164 166 169 169 173 179 185 192 202 222 246 270 262 281 296 9 4 351 6 11 2 8 11 16 20 9 20 5 3 12 11
160 163 169 173 176 177 179 189 194 203 220 220 261 270 296 355 4 11 8 14 12 0 3 5 7 11 13 26 17 16 15 6
Wind_Speed_850mb
52 45 41 34 31 25 18 15 15 13 11 14 12 10 6 7 8 8 10 15 18 23 18 18 18 21 22 16 12 19 25 26
50 48 39 36 33 26 19 18 16 14 15 13 10 7 4 5 7 8 9 8 14 17 17 15 13 24 25 27 13 22 24 34
48 47 41 38 32 28 21 19 18 17 15 15 11 9 5 3 5 7 8 9 9 13 11 12 13 21 28 27 16 16 20 25
45 41 42 39 35 28 24 21 19 18 16 13 10 8 4 3 5 7 7 7 11 9 8 9 8 19 25 25 18 16 18 26
46 42 43 39 34 29 26 22 20 20 16 15 7 7 7 5 3 8 7 5 6 8 7 7 11 22 30 26 11 20 24 29
44 41 41 37 33 28 24 22 21 21 18 15 11 8 7 5 2 6 4 4 6 9 5 6 7 17 24 30 26 21 24 34
41 40 40 36 33 28 24 22 22 21 20 15 10 8 7 5 3 2 3 4 8 5 10 10 15 15 16 20 31 28 22 34
42 40 39 37 32 29 26 23 25 23 19 15 11 11 9 6 4 3 7 8 9 8 20 17 26 27 24 24 23 34 21 36
40 39 38 33 30 26 25 25 26 25 16 15 14 11 10 6 1 5 10 12 16 20 25 28 35 36 31 34 23 33 25 36
37 38 35 32 25 23 25 28 30 26 18 17 14 11 7 10 3 12 14 23 29 34 41 39 39 38 31 29 28 31 33 41
34 33 30 26 24 22 27 30 30 25 20 17 13 9 8 9 13 19 22 25 33 36 33 30 33 32 38 24 31 40 45 50
32 28 26 28 22 26 29 27 33 20 19 16 12 11 10 12 15 11 21 18 23 22 28 30 28 27 26 34 47 50 46 39
30 28 29 22 26 31 28 34 27 20 18 14 12 14 15 12 15 12 19 21 24 29 30 25 23 23 27 37 44 46 47 45
29 27 26 14 31 27 30 29 21 22 16 13 13 13 11 20 19 20 26 31 28 33 33 28 21 21 29 38 41 44 40 29
28 28 21 23 31 32 26 25 24 17 17 11 6 8 8 14 16 24 27 28 33 36 24 24 28 24 35 38 29 42 35 39
28 29 26 32 32 26 26 24 21 15 11 11 10 11 12 11 19 22 25 32 27 25 32 15 17 36 37 22 24 24 32 34
31 30 29 29 28 26 25 23 19 15 12 8 12 14 19 18 19 27 28 25 30 28 22 24 38 32 37 14 28 26 31 38
36 33 30 30 27 25 24 21 18 14 11 10 19 18 10 16 25 16 24 28 27 33 22 29 45 27 28 27 23 35 36 34
32 31 30 28 25 23 22 20 18 14 13 15 4 6 14 20 12 19 24 22 26 26 28 27 28 30 23 23 31 40 31 29
32 30 28 26 23 21 19 18 18 12 12 14 14 13 19 5 16 14 19 23 24 23 21 25 29 26 25 26 30 25 31 31
Wind_Direction_850mb
162 167 170 179 180 174 172 164 162 161 130 115 108 109 86 54 51 20 25 20 7 14 29 17 7 351 7 5 9 26 3 8
160 165 172 179 178 177 174 174 166 168 143 137 147 137 96 51 26 8 18 354 7 6 20 12 358 342 11 12 51 15 357 359
159 163 172 176 176 178 178 178 170 169 164 155 177 152 107 31 3 17 347 356 352 353 23 18 14 347 8 17 26 25 5 5
162 166 171 173 178 178 180 178 174 172 183 173 186 149 178 283 331 347 339 350 336 335 359 7 329 344 6 11 9 3 2 353
161 170 171 175 180 184 181 179 178 178 192 179 179 196 221 271 288 311 314 333 326 324 344 353 335 336 357 7 354 7 349 341
160 167 170 174 179 182 180 177 180 181 184 178 204 219 232 239 276 289 306 311 311 315 330 323 319 314 352 20 18 3 6 336
159 170 172 172 178 179 179 178 177 184 187 190 204 199 178 172 172 16 7 6 344 312 294 278 278 314 351 0 10 14 343 330
157 166 166 172 176 180 179 180 183 187 177 192 189 168 167 159 108 47 11 339 285 308 285 279 284 282 285 302 338 357 335 338
157 160 168 177 180 184 178 186 189 184 182 180 182 172 175 195 203 325 318 319 300 308 299 297 286 300 294 276 313 335 337 337
155 159 177 185 179 180 184 190 186 179 179 179 187 195 221 214 316 300 295 286 295 304 301 303 313 308 307 267 315 323 335 339
158 167 193 203 185 179 182 183 179 170 185 188 198 217 247 267 278 289 305 312 304 308 327 343 341 337 350 357 333 328 329 330
161 180 200 204 188 177 172 181 170 169 189 196 213 233 247 261 276 293 315 317 315 317 306 301 300 309 326 327 324 321 323 315
168 174 178 201 175 162 177 167 162 180 192 207 228 236 251 273 276 280 276 284 293 314 315 310 293 312 316 326 329 336 332 334
168 180 200 215 161 171 171 161 170 182 195 214 232 265 283 278 294 305 309 309 303 312 314 302 291 300 327 331 334 340 345 344
166 182 198 169 169 166 158 169 179 192 217 252 225 269 246 283 307 312 313 312 321 325 332 310 287 310 328 333 339 341 1 356
164 174 162 162 164 160 175 176 183 194 216 254 252 274 294 302 310 310 308 315 339 353 354 90 35 349 346 357 345 15 6 12
160 166 164 169 168 174 174 180 186 197 211 228 245 273 286 286 300 296 314 348 357 14 51 34 7 7 6 5 9 27 18 16
162 167 166 168 171 174 177 183 189 200 231 257 259 251 269 300 311 338 354 353 10 11 2 10 6 7 17 26 36 23 20 16
160 164 166 169 169 173 179 185 192 202 222 246 270 262 281 296 9 4 351 6 11 2 8 11 16 20 9 20 5 3 12 11
160 163 169 173 176 177 179 189 194 203 220 220 261 270 296 355 4 11 8 14 12 0 3 5 7 11 13 26 17 16 15 6